[[{"header":{"parameterUnit":"m.s-1","parameterCategory":1,"la1":30.2991,"la2":30.254,"lo1":-89.0895,"lo2":-89.0444,"dy":0.0017,"dx":0.0017,"nx":28,"ny":28,"refTime":"2024-12-24T03:00:00:Z","depth":0,"parameterNumber":2,"parameterNumberName":"U-component_of_WINDS"},"data":[0,0,0,0,0,0,0,0,0,0,0,0,0,0,0,0,0,0,0,0,0,0,0,0,0,0,0,0,0,0,0,0,0,0,0,0,0,0,0,0,0,0,0,0,0,0,0,0,0,0,0,0,0,0,0,0,0,0,-5.7578,-5.7578,0,-5.763,-5.7631,-5.7631,-5.7469,-5.7464,-5.7459,-5.7454,-5.7511,-5.7517,-5.7523,0,0,0,0,0,0,0,0,0,0,0,0,0,-5.734,-5.7346,-5.7578,-5.7578,-5.7579,-5.763,-5.7631,-5.7631,-5.747,-5.7464,-5.7458,-5.7452,-5.7509,-5.7516,-5.7524,0,0,0,0,0,0,0,0,0,0,0,0,0,-5.7423,-5.7347,-5.7578,-5.7505,-5.7498,-5.763,-5.7631,-5.7632,-5.7471,-5.7464,-5.7456,-5.7449,-5.7507,-5.7516,-5.7525,-5.773,0,0,-5.7553,-5.7557,0,0,0,0,0,0,0,0,-5.7419,-5.7432,-5.7515,-5.751,-5.7503,-5.7535,-5.7567,-5.7665,-5.7473,-5.7482,-5.7454,-5.7446,-5.7525,-5.7533,-5.7559,-5.7733,-5.7735,-5.7554,-5.7559,-5.7563,-5.7566,0,0,0,0,0,0,0,-5.7413,-5.7429,-5.7598,-5.7516,-5.7509,-5.747,-5.7473,-5.7585,-5.7545,-5.748,-5.7469,-5.7477,-5.7521,-5.755,-5.7559,-5.7736,-5.7553,-5.7561,-5.7567,-5.7571,-5.808,-5.8087,0,0,0,0,0,0,-5.7417,-5.7425,-5.7597,-5.76,-5.7442,-5.748,-5.7484,-5.7533,-5.7543,-5.7537,-5.7483,-5.7469,-5.7538,-5.7548,-5.756,-5.78,-5.7563,-5.7572,-5.7577,-5.8072,-5.8082,-5.809,0,0,0,0,0,0,-5.7412,-5.7434,-5.7595,-5.751,-5.7527,-5.7492,-5.7548,-5.7538,-5.7567,-5.7545,-5.7537,-5.7521,-5.7533,-5.7547,-5.7688,-5.78,-5.7576,-5.7584,-5.8062,-5.8075,-5.8086,-5.8284,0,0,0,0,0,0,-5.7406,-5.7433,-5.751,-5.7513,-5.7532,-5.7722,-5.7555,-5.7544,-5.7583,-5.7565,-5.7578,-5.7573,-5.7528,-5.7676,-5.7698,-5.7809,-5.7591,-5.8052,-5.8068,-5.8082,-5.8267,-5.8301,-5.833,0,0,0,0,0,-5.7398,-5.7565,-5.7515,-5.7537,-5.7628,-5.7729,-5.774,-5.7684,-5.7592,-5.767,-5.7656,-5.7573,-5.7785,-5.7692,-5.7715,-5.7831,-5.8045,-5.8063,-5.8081,-5.8253,-5.8294,-5.8329,0,0,0,0,0,0,-5.7578,-5.7564,-5.7508,-5.768,-5.7707,-5.7701,-5.7797,-5.773,-5.7784,-5.7765,-5.7694,-5.7698,-5.7852,-5.7855,-5.7752,-5.8029,-5.7899,-5.7923,-5.8022,-5.8061,-5.8092,-5.8088,-5.7599,0,0,0,0,0,-5.7637,-5.7719,-5.7703,-5.7856,-5.7872,-5.7833,-5.7875,-5.7829,-5.7854,-5.7865,-5.7861,-5.789,-5.7962,-5.8011,-5.8077,-5.8266,-5.8267,-5.8357,-5.8389,-5.8415,-5.8436,-5.8536,-5.8576,-5.8149,-5.8149,-5.8149,0,0,-5.7761,-5.7763,-5.782,-5.7892,-5.7907,-5.7995,-5.7844,-5.7943,-5.8007,-5.788,-5.8013,-5.8012,-5.8038,-5.8204,-5.8277,-5.8211,-5.8554,-5.8438,-5.8459,-5.8466,-5.8558,-5.8599,-5.8635,-5.8162,-5.8159,-5.8157,0,0,-5.8031,-5.8042,-5.817,-5.8188,-5.8212,-5.8185,-5.8216,-5.8221,-5.8214,-5.8346,-5.8253,-5.8328,-5.8455,-5.8478,-5.8506,-5.8785,-5.871,-5.8808,-5.8973,-5.9071,-5.9104,-5.9133,-5.9232,-5.9269,-5.8829,-5.883,-5.883,0,-5.8182,-5.8309,-5.8245,-5.835,-5.8384,-5.8272,-5.8402,-5.8423,-5.8469,-5.8496,-5.8421,-5.8577,-5.8587,-5.8757,-5.8824,-5.8851,-5.8885,-5.8806,-5.9104,-5.9133,-5.916,-5.9253,-5.9291,-5.8841,-5.884,-5.8839,-5.8838,0,-5.8494,-5.8583,-5.8684,-5.8729,-5.8775,-5.8893,-5.8846,-5.8901,-5.8851,-5.8832,-5.8967,-5.8976,-5.9041,-5.9077,-5.9031,-5.9241,-5.9199,-5.9116,-5.8984,-5.9213,-5.93,-5.9335,-5.8858,-5.8854,-5.8851,-5.8848,0,0,-5.8878,-5.8886,-5.8924,-5.8942,-5.8961,-5.9029,-5.9142,-5.9204,-5.9252,-5.9287,-5.9379,-5.9489,-5.9412,-5.9444,-5.9399,-5.9485,-5.9704,-5.9391,-5.939,-5.9448,-5.9935,-5.9997,-6.004,-5.9655,-5.9661,-5.9667,-5.9933,0,-5.9144,-5.9334,-5.9279,-5.9471,-5.9553,-5.9448,-5.9545,-5.9568,-5.9553,-5.9621,-5.9604,-5.9683,-5.9575,-5.9594,-5.9674,-5.9661,-5.9801,-5.9641,-5.974,-5.9745,-5.9736,-6.0085,-6.0151,-6.0402,-5.9966,-5.9972,-5.9976,0,-5.9478,-5.9525,-5.9725,-5.9729,-5.9761,-5.985,-5.9902,-5.9968,-5.9992,-5.9975,-6.0011,-5.9948,-6.0058,-5.9926,-6.0077,-5.9969,-6.0007,-6.0006,-6.0015,-6.0021,-5.9874,-6.0101,-6.048,-6.0518,-6.0029,-6.0025,-6.0021,0,-5.9738,-5.9852,-5.9985,-6.0005,-6.0013,-6.0078,-6.0084,-6.01,-6.0141,-6.0187,-6.0213,-6.0272,-6.0305,-6.0353,-6.0307,-6.0215,-6.0466,-6.0329,-6.0455,-6.0456,-6.0512,-6.0509,-6.0903,-6.0538,-6.0538,-6.0537,-6.0536,0,-6.004,-6.0166,-6.0102,-6.0184,-6.0322,-6.0258,-6.0397,-6.0392,-6.0407,-6.0486,-6.04,-6.0477,-6.0412,-6.0484,-6.0449,-6.058,-6.0595,-6.0585,-6.0574,-6.0592,-6.0594,-6.0616,-6.0597,-6.0547,-6.0545,-6.0543,-6.0541,0,-6.0353,-6.0315,-6.0454,-6.045,-6.0452,-6.0554,-6.0551,-6.0627,-6.0606,-6.0708,-6.0728,-6.0695,-6.0775,-6.0734,-6.0817,-6.0794,-6.0962,-6.0928,-6.0954,-6.0945,-6.1072,-6.1061,-6.1493,-6.1546,-6.1149,-6.1152,-6.1156,0,-6.0547,-6.0642,-6.0648,-6.0694,-6.0707,-6.0783,-6.0824,-6.0765,-6.0811,-6.0845,-6.0917,-6.0989,-6.1043,-6.1175,-6.1159,-6.1222,-6.1188,-6.1336,-6.1197,-6.1212,-6.119,-6.1184,-6.1193,-6.1363,-6.1368,-6.1372,-6.1375,0,-6.0897,-6.0873,-6.0934,-6.099,-6.1041,-6.1083,-6.1116,-6.116,-6.1101,-6.1158,-6.1237,-6.128,-6.1363,-6.1436,-6.149,-6.1497,-6.1428,-6.1419,-6.1451,-6.147,-6.148,-6.1476,-6.1029,-6.1409,-6.1405,-6.1403,-6.1401,-6.14,-6.1155,-6.1234,-6.125,-6.1322,-6.1341,-6.1375,-6.1446,-6.1433,-6.1498,-6.1561,-6.1522,-6.1616,-6.1636,-6.1702,-6.1718,-6.1791,-6.1732,-6.1779,-6.1791,-6.1803,-6.182,-6.147,-6.1801,-6.18,-6.1799,-6.1798,-6.1797,0,-6.1499,-6.1504,-6.1571,-6.162,-6.1677,-6.1605,-6.1639,-6.1691,-6.1774,-6.1798,-6.1853,-6.1945,-6.2014,-6.2004,-6.2067,-6.2127,-6.2097,-6.2146,-6.214,-6.2143,-6.1869,-6.1835,-6.217,-6.217,-6.2169,-6.2169,-6.2169,-6.2169,-6.1684,-6.1813,-6.1792,-6.1929,-6.1933,-6.2023,-6.2049,-6.208,-6.2099,-6.2204,-6.2261,-6.2253,-6.2264,-6.2327,-6.2388,-6.2383,-6.241,-6.2472,-6.2455,-6.2199,-6.2163,-6.2127,-6.2094,-6.2478,-6.2479,-6.2722,-6.2725,-6.2726]},{"header":{"parameterUnit":"m.s-1","parameterCategory":1,"la1":30.2991,"la2":30.254,"lo1":-89.0895,"lo2":-89.0444,"dy":0.0017,"dx":0.0017,"nx":28,"ny":28,"refTime":"2024-12-24T03:00:00:Z","depth":0,"parameterNumber":3,"parameterNumberName":"V-component_of_WINDS"},"data":[0,0,0,0,0,0,0,0,0,0,0,0,0,0,0,0,0,0,0,0,0,0,0,0,0,0,0,0,0,0,0,0,0,0,0,0,0,0,0,0,0,0,0,0,0,0,0,0,0,0,0,0,0,0,0,0,0,0,-1.0484,-1.0484,0,-1.052,-1.0521,-1.0521,-1.0514,-1.0514,-1.0513,-1.0513,-1.0552,-1.0553,-1.0555,0,0,0,0,0,0,0,0,0,0,0,0,0,-1.0409,-1.041,-1.0484,-1.0484,-1.0485,-1.052,-1.0521,-1.0521,-1.0515,-1.0514,-1.0513,-1.0512,-1.0551,-1.0553,-1.0555,0,0,0,0,0,0,0,0,0,0,0,0,0,-1.0443,-1.0411,-1.0484,-1.0486,-1.0486,-1.052,-1.0521,-1.0521,-1.0515,-1.0514,-1.0513,-1.0512,-1.055,-1.0553,-1.0555,-1.059,0,0,-1.0563,-1.0564,0,0,0,0,0,0,0,0,-1.0441,-1.0446,-1.0485,-1.0486,-1.0486,-1.0512,-1.0508,-1.0544,-1.0515,-1.0504,-1.0513,-1.0511,-1.0539,-1.0543,-1.0552,-1.0592,-1.0594,-1.0563,-1.0565,-1.0566,-1.0566,0,0,0,0,0,0,0,-1.0439,-1.0444,-1.0498,-1.0486,-1.0486,-1.0485,-1.0489,-1.0515,-1.0527,-1.0505,-1.0504,-1.0509,-1.0539,-1.0549,-1.0552,-1.0594,-1.0563,-1.0565,-1.0567,-1.0568,-1.0663,-1.0664,0,0,0,0,0,0,-1.0436,-1.0442,-1.0497,-1.0499,-1.0461,-1.0487,-1.0491,-1.0505,-1.0526,-1.0529,-1.051,-1.0508,-1.0546,-1.055,-1.0554,-1.0595,-1.0566,-1.0568,-1.0569,-1.0662,-1.0663,-1.0664,0,0,0,0,0,0,-1.0434,-1.0441,-1.0496,-1.0471,-1.0478,-1.0489,-1.0504,-1.0506,-1.0516,-1.053,-1.0532,-1.0518,-1.0545,-1.055,-1.0581,-1.0596,-1.0569,-1.0571,-1.0661,-1.0662,-1.0664,-1.0678,0,0,0,0,0,0,-1.0432,-1.044,-1.0454,-1.0471,-1.0479,-1.0522,-1.0505,-1.0507,-1.052,-1.0518,-1.0538,-1.054,-1.0545,-1.0577,-1.0583,-1.0599,-1.0573,-1.0659,-1.0661,-1.0663,-1.0676,-1.068,-1.0683,0,0,0,0,0,-1.0429,-1.0457,-1.0454,-1.0461,-1.0496,-1.0523,-1.0527,-1.0531,-1.0521,-1.0535,-1.0543,-1.054,-1.0593,-1.058,-1.0587,-1.0604,-1.0658,-1.0661,-1.0663,-1.0675,-1.0679,-1.0683,0,0,0,0,0,0,-1.0442,-1.0459,-1.0457,-1.0491,-1.0505,-1.0522,-1.0539,-1.0536,-1.0555,-1.0553,-1.0557,-1.0562,-1.0592,-1.0601,-1.0586,-1.0638,-1.0624,-1.0628,-1.0631,-1.0635,-1.0639,-1.0636,-1.0575,0,0,0,0,0,-1.0449,-1.0469,-1.0483,-1.0512,-1.0519,-1.0528,-1.054,-1.0541,-1.0556,-1.0563,-1.0574,-1.0589,-1.0609,-1.0623,-1.0642,-1.0677,-1.0681,-1.0692,-1.0696,-1.0698,-1.0702,-1.0719,-1.0724,-1.0672,-1.0672,-1.0672,0,0,-1.0463,-1.0475,-1.0488,-1.0515,-1.0526,-1.0547,-1.0533,-1.0556,-1.0571,-1.0567,-1.0595,-1.0604,-1.0621,-1.0653,-1.0668,-1.0662,-1.0717,-1.0701,-1.0703,-1.0705,-1.0722,-1.0727,-1.0732,-1.0674,-1.0673,-1.0673,0,0,-1.05,-1.0511,-1.0536,-1.0547,-1.0564,-1.0569,-1.0575,-1.0591,-1.0596,-1.0625,-1.0621,-1.0639,-1.0674,-1.0686,-1.0697,-1.0736,-1.0733,-1.0742,-1.076,-1.0777,-1.0781,-1.0785,-1.0798,-1.0803,-1.0745,-1.0745,-1.0745,0,-1.0516,-1.0547,-1.0549,-1.0571,-1.0583,-1.0578,-1.0603,-1.0614,-1.0636,-1.0644,-1.0636,-1.0679,-1.069,-1.0725,-1.0734,-1.0743,-1.0749,-1.074,-1.078,-1.0784,-1.0788,-1.08,-1.0805,-1.0746,-1.0746,-1.0746,-1.0746,0,-1.0565,-1.0586,-1.0604,-1.0625,-1.0638,-1.0662,-1.0667,-1.068,-1.068,-1.0686,-1.0714,-1.0727,-1.0748,-1.0757,-1.0757,-1.0791,-1.0786,-1.0779,-1.0766,-1.0794,-1.0805,-1.081,-1.0748,-1.0747,-1.0747,-1.0747,0,0,-1.0613,-1.0633,-1.0639,-1.0648,-1.0665,-1.0681,-1.0704,-1.0723,-1.0734,-1.0749,-1.0768,-1.0797,-1.079,-1.0802,-1.0804,-1.0819,-1.0847,-1.081,-1.0811,-1.0816,-1.0884,-1.0889,-1.0894,-1.0845,-1.0846,-1.0847,-1.0882,0,-1.0651,-1.0691,-1.0692,-1.0728,-1.0747,-1.0741,-1.0761,-1.0773,-1.0779,-1.0795,-1.0802,-1.0821,-1.0812,-1.0818,-1.0833,-1.0841,-1.0861,-1.0838,-1.0862,-1.0863,-1.0858,-1.09,-1.0906,-1.0939,-1.0887,-1.0888,-1.0888,0,-1.0701,-1.0716,-1.0754,-1.0766,-1.0774,-1.0792,-1.0809,-1.0825,-1.0839,-1.0841,-1.0854,-1.0852,-1.0875,-1.086,-1.0891,-1.0875,-1.0885,-1.089,-1.0892,-1.0894,-1.0878,-1.0904,-1.095,-1.0955,-1.0896,-1.0895,-1.0894,0,-1.0732,-1.0761,-1.0787,-1.0795,-1.081,-1.0822,-1.0829,-1.0842,-1.0853,-1.0868,-1.0875,-1.0893,-1.0903,-1.0916,-1.092,-1.0909,-1.095,-1.0936,-1.0953,-1.0953,-1.0963,-1.0962,-1.1011,-1.0969,-1.0969,-1.0969,-1.0969,0,-1.0774,-1.0797,-1.0801,-1.0817,-1.0842,-1.0843,-1.0868,-1.0874,-1.0885,-1.0901,-1.0898,-1.0914,-1.0917,-1.0934,-1.0937,-1.0961,-1.0966,-1.0969,-1.0969,-1.0969,-1.0969,-1.0976,-1.0974,-1.097,-1.097,-1.097,-1.097,0,-1.0813,-1.0816,-1.0844,-1.0855,-1.0859,-1.0877,-1.0886,-1.0901,-1.0905,-1.0927,-1.0932,-1.0938,-1.0957,-1.0962,-1.0985,-1.0987,-1.1016,-1.1014,-1.1011,-1.1011,-1.1027,-1.1026,-1.1082,-1.109,-1.1043,-1.1044,-1.1044,0,-1.084,-1.0857,-1.087,-1.088,-1.0887,-1.0905,-1.0915,-1.0916,-1.0928,-1.0943,-1.0956,-1.0974,-1.0989,-1.1019,-1.1026,-1.1044,-1.1042,-1.1061,-1.1045,-1.1044,-1.1042,-1.1041,-1.1042,-1.1064,-1.1065,-1.1065,-1.1065,0,-1.0887,-1.0887,-1.0903,-1.0918,-1.093,-1.0943,-1.0955,-1.0964,-1.0966,-1.0979,-1.0998,-1.1009,-1.1031,-1.1049,-1.1066,-1.1073,-1.107,-1.107,-1.1075,-1.1075,-1.1072,-1.1073,-1.1019,-1.1069,-1.1069,-1.1068,-1.1068,-1.1068,-1.0921,-1.0935,-1.0945,-1.0962,-1.0971,-1.0981,-1.0995,-1.1,-1.1016,-1.1033,-1.1033,-1.1053,-1.1064,-1.1086,-1.1094,-1.111,-1.1104,-1.1111,-1.1113,-1.1115,-1.1116,-1.1069,-1.1113,-1.1113,-1.1113,-1.1113,-1.1113,0,-1.0967,-1.0973,-1.0988,-1.1004,-1.1017,-1.1011,-1.1023,-1.1034,-1.1052,-1.1062,-1.1076,-1.1097,-1.1113,-1.1121,-1.1137,-1.1148,-1.1147,-1.1153,-1.1152,-1.1154,-1.1121,-1.1115,-1.1153,-1.1153,-1.1153,-1.1153,-1.1153,-1.1153,-1.0993,-1.1017,-1.1018,-1.1045,-1.1051,-1.107,-1.1077,-1.1086,-1.1095,-1.1117,-1.1131,-1.1135,-1.1144,-1.1161,-1.1176,-1.1178,-1.1184,-1.119,-1.1191,-1.116,-1.1156,-1.1152,-1.1147,-1.1192,-1.1192,-1.1223,-1.1223,-1.1223]}]]